Theta_e
341 340 340 338 335 331 330 331 331 333 334 333 332 330 328 327 327 326 324 321 319 319 321 322 323 323 322 321 321 321 321 321 322 323 323 322 323 324 324 325 326 326
338 338 338 335 333 332 331 332 332 334 334 331 328 326 325 326 325 323 321 320 318 318 320 322 323 323 322 322 322 321 321 321 322 324 324 324 325 325 325 326 327 328
335 336 335 334 333 335 334 332 332 332 333 331 326 322 322 322 321 320 320 319 318 318 321 322 323 322 322 322 321 321 321 321 323 324 325 325 325 325 326 327 328 328
334 333 333 332 333 335 333 331 330 330 331 329 323 320 320 320 319 319 319 318 317 318 321 323 323 322 321 322 322 322 322 322 324 325 326 325 325 325 326 326 327 327
332 331 331 332 333 334 333 331 329 328 328 326 322 320 319 317 317 318 318 317 317 318 321 322 322 321 321 323 324 324 324 325 326 326 326 326 326 326 326 326 326 326
331 330 330 331 331 332 332 329 325 325 325 324 322 320 318 316 316 317 318 318 317 318 321 322 322 321 322 325 327 327 327 327 327 328 328 328 328 327 327 327 327 327
330 329 330 330 330 331 330 327 325 324 324 323 321 318 316 316 316 317 318 318 318 319 321 322 321 320 323 327 328 328 328 328 328 329 329 329 329 329 329 328 328 328
329 329 330 330 331 330 330 329 327 326 326 325 321 318 316 316 317 318 319 320 318 319 321 322 321 322 324 328 329 329 329 329 329 330 330 329 329 328 328 328 328 328
330 329 329 331 332 331 331 331 328 328 330 328 322 318 316 316 319 321 321 320 318 319 322 325 324 325 326 328 329 329 330 330 330 330 329 329 328 328 328 328 328 327
330 329 329 331 332 332 333 334 332 331 332 330 323 318 318 320 320 320 321 320 318 319 323 326 327 327 328 328 329 330 330 330 330 329 329 329 328 327 326 325 326 326
331 329 329 330 331 332 334 335 336 334 332 329 324 318 321 326 324 321 322 320 319 320 322 325 327 328 328 328 329 329 329 330 330 330 329 329 328 326 324 324 325 324
334 330 329 329 330 332 334 335 337 337 333 328 323 319 323 329 327 323 322 321 322 324 323 323 327 328 328 328 328 329 329 330 330 330 329 329 327 325 323 324 324 323
339 334 329 328 330 334 336 336 338 340 336 328 322 320 324 328 327 324 323 322 326 328 324 322 327 329 328 328 328 329 329 330 330 330 329 328 327 325 324 324 324 325
344 341 336 334 338 340 338 338 340 341 337 330 323 321 323 327 327 324 324 326 329 328 324 323 327 329 328 328 328 329 329 329 329 329 328 327 326 325 325 325 326 326
348 347 345 344 345 344 340 340 342 343 341 332 325 322 323 326 327 325 325 328 329 325 323 325 328 329 329 329 329 329 330 329 327 326 326 325 325 325 326 326 327 327
351 351 350 349 348 346 344 343 340 342 342 335 326 324 325 326 327 325 324 327 327 323 322 326 329 329 329 329 329 330 330 327 325 324 324 324 325 326 327 327 327 327
352 352 352 352 350 347 346 345 340 339 340 336 328 324 325 326 326 324 325 326 326 323 322 326 330 330 329 330 330 330 330 327 325 325 324 325 326 327 327 327 327 328
351 352 352 352 352 349 347 347 344 340 339 336 332 328 327 327 326 326 328 327 325 324 324 327 330 329 330 331 331 331 330 327 326 326 326 328 329 330 330 330 329 328
350 352 352 352 352 350 348 347 343 336 333 335 337 334 330 327 325 327 331 327 324 325 326 328 328 326 328 332 332 332 331 329 328 329 330 332 332 332 333 332 331 330
350 351 352 351 351 350 349 347 342 336 332 333 336 335 331 327 325 329 330 325 323 324 326 328 328 325 328 332 332 332 331 330 331 332 333 333 334 334 334 332 331 330
350 350 351 351 351 350 349 347 344 339 334 332 333 334 331 327 327 328 327 323 324 325 325 327 327 327 330 333 332 332 332 331 332 333 334 334 333 333 332 330 329 329
349 350 350 350 350 349 348 346 345 342 337 333 333 334 332 330 328 326 324 324 326 326 326 326 327 328 331 332 333 333 332 332 333 333 334 333 332 331 330 329 328 328
349 349 349 349 349 348 348 347 345 342 338 336 335 335 333 331 327 324 323 325 328 327 326 326 328 329 330 332 334 334 333 332 332 333 334 332 330 329 329 328 327 325
348 348 348 349 348 348 347 347 345 341 338 336 335 334 333 330 326 323 323 326 329 331 329 327 327 328 329 332 334 335 334 333 332 333 333 332 329 329 328 327 324 321
347 348 348 348 348 347 347 346 344 342 338 336 335 334 333 330 326 323 324 327 332 334 332 327 326 327 329 332 335 335 335 333 333 333 332 330 329 328 326 324 321 320
347 347 347 347 347 347 346 344 343 341 338 336 335 333 331 328 325 324 327 331 334 335 331 327 327 327 330 333 336 336 335 334 332 330 329 328 328 325 323 322 321 320
Wind_Speed
31 30 28 27 26 25 23 21 19 17 16 15 14 14 13 12 11 11 11 9 8 8 9 9 8 7 6 6 6 7 7 8 8 8 8 8 8 8 8 8 8 8
33 32 30 29 29 27 24 21 18 16 15 14 13 13 12 12 11 12 11 10 9 9 9 9 9 8 7 7 7 8 8 9 9 9 8 8 8 8 9 8 8 9
35 34 33 32 30 28 25 21 18 17 16 14 14 13 13 12 12 12 12 11 10 10 10 10 10 9 9 8 8 8 8 8 8 8 8 8 8 9 9 9 9 10
37 35 34 33 31 28 25 21 19 18 17 16 15 14 14 13 12 13 12 12 10 11 12 11 11 11 9 9 9 8 8 8 7 7 7 7 7 8 9 9 10 10
38 37 36 34 32 29 26 23 21 20 19 17 16 15 14 13 13 13 13 12 12 12 13 13 13 11 11 10 8 7 7 7 7 6 7 6 6 7 8 8 10 10
40 39 38 35 33 31 28 25 23 21 20 18 16 15 14 13 13 13 13 13 12 13 15 14 14 13 12 11 9 8 8 8 7 8 8 8 8 9 9 10 11 11
42 42 40 38 35 33 30 28 25 24 22 19 17 16 15 14 12 11 12 13 13 15 15 15 14 14 14 12 10 10 9 10 10 10 10 11 11 11 12 12 13 13
44 44 42 40 38 36 33 30 27 25 23 20 18 17 15 14 12 11 12 14 15 15 15 15 16 16 15 14 12 12 12 12 12 12 13 13 13 13 14 14 15 15
45 45 44 42 40 38 36 33 29 27 25 22 19 17 14 12 12 12 13 14 15 16 16 16 17 17 16 15 14 13 13 13 14 14 15 14 14 15 15 15 16 16
47 47 46 45 43 41 39 35 31 28 26 23 20 18 16 14 13 13 13 15 17 18 18 19 19 18 17 16 15 14 14 15 15 15 15 15 15 15 15 14 15 15
48 49 49 48 46 44 41 38 34 31 29 27 25 25 22 18 18 18 18 19 19 17 19 21 20 19 18 16 15 15 16 16 16 16 16 16 16 15 14 13 13 13
48 50 51 51 49 46 43 40 36 33 32 32 30 29 27 23 22 23 22 22 20 17 18 21 21 20 18 17 17 17 17 18 17 17 17 16 16 14 12 11 11 11
49 50 51 53 51 47 43 41 39 36 35 35 32 31 29 25 24 25 24 23 20 17 18 21 21 20 19 18 18 18 18 18 18 18 17 16 15 14 11 10 10 10
49 50 51 52 49 44 42 41 40 38 38 37 34 32 29 26 25 26 25 22 20 19 20 22 22 21 20 19 19 19 18 18 19 18 17 16 15 14 12 11 12 12
48 50 50 49 46 44 44 43 40 39 40 39 36 33 31 29 27 27 26 23 20 21 23 23 23 22 20 19 19 18 17 18 18 17 16 15 15 14 13 13 14 15
45 46 47 47 45 44 45 45 43 42 43 42 39 38 36 32 29 28 28 25 23 23 23 23 23 22 19 19 18 17 16 17 17 16 16 16 16 16 16 16 17 18
41 42 44 44 45 44 44 46 47 48 48 45 41 41 40 35 31 30 29 28 28 25 23 24 24 22 20 19 18 17 16 16 17 17 18 18 18 18 18 18 19 20
38 40 42 42 43 44 43 46 49 50 51 50 46 45 42 37 33 30 28 30 33 29 25 25 25 22 20 19 18 17 16 16 18 19 19 19 19 19 19 20 20 21
36 38 40 40 41 41 41 45 48 46 47 50 52 51 45 38 34 30 29 33 36 32 28 26 26 23 20 19 19 18 17 17 19 20 20 20 20 20 21 22 22 22
34 36 37 38 38 38 38 42 45 43 42 46 51 52 46 38 34 32 31 35 36 32 29 28 27 24 21 20 20 19 18 18 19 20 20 20 21 22 23 23 22 21
32 33 35 35 35 35 37 40 42 42 43 44 46 48 43 37 35 34 34 36 34 30 30 29 27 25 22 20 20 20 19 19 20 20 21 22 22 22 22 21 20 21
29 30 32 32 32 33 35 38 40 42 42 40 41 43 41 38 36 36 36 35 30 27 29 30 28 25 23 22 21 21 21 20 21 22 22 23 22 20 19 19 20 21
26 28 28 28 29 31 34 36 39 41 38 35 36 38 37 36 36 36 37 33 27 25 26 29 29 26 25 23 22 22 23 23 23 23 24 24 21 18 18 19 21 22
23 24 24 24 25 29 32 34 37 37 35 34 35 32 29 32 35 36 35 31 27 25 25 27 28 27 25 24 24 24 25 25 26 26 25 23 20 18 18 20 20 20
20 20 20 20 22 26 29 31 31 30 30 33 34 30 28 30 34 35 33 30 28 27 26 26 27 27 26 25 26 26 26 27 30 29 25 21 19 18 18 18 19 19
17 16 16 18 20 22 25 27 27 26 27 31 31 28 27 28 31 32 30 28 27 27 26 25 26 26 26 27 28 27 27 30 30 25 19 17 17 17 16 16 17 19
Wind_Direction
233 233 235 235 235 237 237 238 239 238 239 241 245 253 258 262 265 267 271 270 263 246 229 223 226 236 248 251 256 262 266 269 268 268 269 271 271 269 271 273 273 275
231 231 232 232 233 235 237 238 238 239 241 244 249 254 257 260 265 269 269 266 259 240 224 223 226 234 244 250 257 264 267 269 269 272 275 276 274 272 273 274 275 276
230 230 230 231 232 234 236 237 236 236 237 240 245 248 251 257 264 267 263 262 256 236 224 224 227 232 240 246 254 258 260 263 265 268 272 275 276 275 274 274 273 275
230 230 230 232 233 234 235 235 234 233 233 235 240 243 247 253 260 260 259 261 254 234 226 226 227 231 236 239 244 246 247 251 251 252 261 270 277 277 276 274 273 274
231 231 231 232 232 232 233 233 232 233 233 236 238 242 246 252 256 257 259 262 253 234 226 227 228 231 231 230 232 236 236 239 240 242 252 265 274 278 280 279 280 280
231 232 232 232 232 231 231 230 231 231 232 233 235 238 244 249 252 255 260 262 250 233 225 226 229 228 226 225 227 232 235 238 244 248 255 264 272 278 281 282 285 287
231 231 232 232 231 231 231 230 230 230 230 230 230 232 236 238 242 252 263 261 245 230 225 226 229 226 224 227 231 236 242 248 255 260 265 272 276 280 282 282 284 285
231 232 233 233 232 231 231 230 229 230 231 228 225 226 227 227 231 237 251 254 239 226 224 227 228 226 225 230 234 241 249 257 264 270 274 279 282 285 286 284 283 283
233 234 234 234 234 233 232 231 229 229 229 226 222 220 216 220 232 234 241 244 232 224 226 229 229 227 227 233 239 245 254 261 267 272 276 280 283 285 284 280 279 280
235 235 236 236 235 234 233 232 228 226 226 223 216 209 205 213 228 234 236 234 226 226 230 232 232 232 232 237 244 250 257 263 268 273 276 279 282 284 282 277 276 279
237 237 238 238 237 235 234 233 229 224 221 219 215 210 212 222 227 228 229 226 224 228 232 233 236 238 239 243 248 254 260 266 271 275 278 280 282 283 281 278 278 284
239 239 239 240 240 238 235 233 230 225 220 219 219 215 219 230 231 226 224 223 226 231 230 232 235 239 243 247 251 257 263 269 274 278 279 280 280 279 278 279 283 290
242 242 241 242 242 239 236 234 231 227 222 223 225 220 222 232 230 222 219 223 233 238 231 228 231 236 244 249 254 260 264 271 275 277 278 278 276 273 272 275 282 290
244 245 245 245 244 239 237 236 232 229 226 225 225 223 226 233 229 222 223 227 236 239 230 226 229 236 244 250 256 261 265 271 276 275 276 275 271 268 268 272 280 286
247 246 246 246 243 240 238 235 232 231 227 223 223 225 230 234 232 227 225 226 233 235 228 225 229 236 243 251 258 262 266 271 273 271 271 270 267 266 268 273 279 285
250 249 248 246 244 241 237 232 231 233 227 221 222 226 230 234 233 225 220 223 232 234 227 225 229 235 243 251 257 263 267 268 267 266 266 265 265 266 269 274 280 284
254 252 249 247 245 241 235 229 229 230 228 223 220 223 228 233 229 221 220 227 233 234 228 225 229 235 241 249 255 260 266 266 262 262 262 261 263 267 272 277 281 283
256 253 250 249 246 242 238 231 225 221 221 222 222 224 230 233 227 224 231 234 233 234 233 229 230 234 239 247 253 259 265 264 260 259 260 261 266 271 276 279 281 283
257 253 251 251 248 244 241 234 225 215 211 216 224 230 234 231 226 232 239 234 231 235 238 235 233 234 237 246 253 259 264 262 258 259 261 265 270 275 278 280 281 284
256 253 252 252 249 246 241 236 231 222 213 214 224 232 234 230 229 236 237 231 232 239 242 238 235 234 239 247 251 257 261 259 257 259 262 266 270 273 277 279 281 285
256 253 252 251 249 247 242 237 235 230 219 215 221 229 234 233 232 235 233 230 236 244 244 239 234 235 242 247 249 255 259 256 256 258 262 266 269 273 276 278 283 287
257 253 252 252 249 246 242 238 239 235 225 220 224 231 236 235 232 231 230 231 239 247 245 239 236 239 245 246 249 254 255 254 256 257 261 266 270 273 276 280 286 289
259 254 254 254 251 246 242 241 242 237 230 227 228 231 233 232 229 228 228 232 241 251 248 242 240 244 247 246 249 253 253 255 257 257 261 268 271 273 278 284 288 288
262 258 257 257 254 249 246 245 241 237 233 232 231 232 234 232 229 227 228 233 243 254 257 251 246 247 248 248 251 254 254 256 258 258 262 267 269 271 279 285 287 288
263 262 262 260 258 255 251 246 242 239 235 232 233 240 244 236 228 226 231 238 248 259 265 258 250 249 250 251 255 257 256 257 258 258 260 264 267 273 281 284 286 291
264 265 266 262 258 256 252 246 241 236 231 231 238 246 244 231 224 227 235 245 256 266 268 261 253 253 254 256 259 261 260 258 255 252 258 269 273 277 282 285 289 295